Middletown, OH

11:50 PM EDT on October 19, 2019 (GMT -0400)
Hook Field Municipal

Weather History for KMWO - September, 2019

Change the Weather History Date:

Thursday, September 19, 2019

  Actual Average (KFFO) Record (KFFO)
Temperature  
Mean Temperature 72 °F -  
Max Temperature 87 °F 73 °F 87 °F (2018)
Min Temperature 57 °F 50 °F 39 °F (2012)
Cooling Degree Days 7    
Growing Degree Days 22 (Base 50)    
Moisture  
Dew Point 60 °F    
Average Humidity 65    
Maximum Humidity 82    
Minimum Humidity 51    
Precipitation  
Precipitation 0.00 in - - ()
Sea Level Pressure  
Sea Level Pressure 30.11 in    
Wind  
Wind Speed 4 mph ()    
Max Wind Speed 10 mph    
Max Gust Speed -    
Visibility 10.0 miles    
Events      
Averages and records for this station are not official NWS values.
T = Trace of Precipitation, MM = Missing Value Source: Averaged Metar Reports

Daily Weather History Graph

Daily Weather History Graph

Search for Another Location

Airport or City:

Astronomy

Sep. 19, 2019 Rise Set
Actual Time 7:22 AM EDT 7:39 PM EDT
Civil Twilight 6:55 AM EDT 8:06 PM EDT
Nautical Twilight 6:23 AM EDT 8:38 PM EDT
Astronomical Twilight 5:51 AM EDT 9:10 PM EDT
Moon 10:49 PM EDT (9/19) 12:23 PM EDT (9/19)
Length of Visible Light 13h 11m
Length of Day
12h 17m
Waning Gibbous, 74% of the Moon is Illuminated
Sep 19
Waning Gibbous
Sep 21
Last Quarter
Sep 28
New
Oct 5
First Quarter
Oct 13
Full

Hourly Weather History & Observations

Time (EDT) Temp. Heat Index Dew Point Humidity Pressure Visibility Wind Dir Wind Speed Gust Speed Precip Events Conditions
12:15 AM 65.7 °F - 52.0 °F 61% 30.12 in 10.0 mi NNE 4.6 mph - N/A   Clear
12:35 AM 65.5 °F - 52.0 °F 62% 30.12 in 10.0 mi NNE 3.5 mph - N/A   Clear
12:55 AM 65.3 °F - 52.3 °F 63% 30.12 in 10.0 mi NE 4.6 mph - N/A   Clear
1:15 AM 64.8 °F - 51.6 °F 62% 30.13 in 10.0 mi NE 5.8 mph - N/A   Clear
1:35 AM 64.2 °F - 52.0 °F 64% 30.13 in 10.0 mi Calm Calm - N/A   Clear
1:55 AM 63.3 °F - 52.3 °F 67% 30.13 in 10.0 mi Calm Calm - N/A   Clear
2:15 AM 63.5 °F - 52.0 °F 66% 30.13 in 10.0 mi NNE 4.6 mph - N/A   Clear
2:35 AM 62.6 °F - 52.5 °F 70% 30.12 in 10.0 mi NNE 5.8 mph - N/A   Clear
2:55 AM 63.1 °F - 52.2 °F 67% 30.12 in 10.0 mi NE 3.5 mph - N/A   Clear
3:15 AM 63.0 °F - 52.0 °F 67% 30.12 in 10.0 mi Calm Calm - N/A   Clear
3:35 AM 62.8 °F - 52.2 °F 68% 30.12 in 10.0 mi ENE 4.6 mph - N/A   Clear
3:55 AM 63.1 °F - 51.8 °F 66% 30.11 in 10.0 mi ENE 5.8 mph - N/A   Clear
4:15 AM 62.6 °F - 51.3 °F 66% 30.11 in 10.0 mi ENE 4.6 mph - N/A   Clear
4:35 AM 61.9 °F - 51.4 °F 69% 30.12 in 10.0 mi NE 3.5 mph - N/A   Clear
4:55 AM 61.2 °F - 51.1 °F 69% 30.12 in 10.0 mi NNE 3.5 mph - N/A   Clear
5:15 AM 60.4 °F - 52.3 °F 75% 30.11 in 10.0 mi NNE 3.5 mph - N/A   Clear
5:35 AM 59.0 °F - 52.2 °F 78% 30.12 in 10.0 mi North 4.6 mph - N/A   Clear
5:55 AM 58.1 °F - 52.3 °F 81% 30.11 in 10.0 mi NNE 4.6 mph - N/A   Clear
6:15 AM 58.5 °F - 52.0 °F 79% 30.12 in 10.0 mi Calm Calm - N/A   Clear
6:35 AM 58.5 °F - 52.2 °F 80% 30.12 in 10.0 mi NNE 4.6 mph - N/A   Clear
6:55 AM 58.6 °F - 52.5 °F 80% 30.12 in 10.0 mi Calm Calm - N/A   Clear
7:15 AM 57.6 °F - 52.0 °F 82% 30.12 in 10.0 mi NNE 4.6 mph - N/A   Clear
7:35 AM 58.8 °F - 52.3 °F 79% 30.12 in 10.0 mi North 3.5 mph - N/A   Clear
8:15 AM 59.7 °F - 53.8 °F 81% 30.14 in 10.0 mi ENE 5.8 mph - N/A   Mostly Cloudy
8:35 AM 61.5 °F - 53.2 °F 74% 30.13 in 10.0 mi ENE 5.8 mph - N/A   Scattered Clouds
8:55 AM 63.7 °F - 54.0 °F 71% 30.14 in 10.0 mi NE 4.6 mph - N/A   Scattered Clouds
9:15 AM 65.3 °F - 54.5 °F 68% 30.14 in 10.0 mi ENE 4.6 mph - N/A   Scattered Clouds
9:35 AM 67.6 °F - 55.8 °F 66% 30.15 in 10.0 mi NNE 3.5 mph - N/A   Scattered Clouds
9:55 AM 70.5 °F - 58.3 °F 65% 30.15 in 10.0 mi SE 5.8 mph - N/A   Clear
10:15 AM 72.0 °F - 59.4 °F 64% 30.15 in 10.0 mi SSE 5.8 mph - N/A   Clear
10:35 AM 72.9 °F - 60.1 °F 64% 30.15 in 10.0 mi SE 5.8 mph - N/A   Scattered Clouds
10:55 AM 73.4 °F - 60.1 °F 63% 30.15 in 10.0 mi South 6.9 mph - N/A   Clear
11:15 AM 75.4 °F - 61.5 °F 62% 30.15 in 10.0 mi SE 4.6 mph - N/A   Clear
11:35 AM 76.6 °F - 62.8 °F 62% 30.15 in 10.0 mi SW 5.8 mph - N/A   Clear
11:55 AM 77.2 °F - 62.8 °F 61% 30.15 in 10.0 mi Calm Calm - N/A   Clear
12:15 PM 78.4 °F - 63.9 °F 61% 30.14 in 10.0 mi SSW 4.6 mph - N/A   Clear
12:35 PM 80.1 °F 81.7 °F 64.2 °F 58% 30.14 in 10.0 mi SW 3.5 mph - N/A   Clear
12:55 PM 79.3 °F - 64.6 °F 60% 30.14 in 10.0 mi South 5.8 mph - N/A   Scattered Clouds
1:15 PM 80.8 °F 82.6 °F 65.1 °F 59% 30.13 in 10.0 mi SE 5.8 mph - N/A   Clear
1:35 PM 82.9 °F 85.0 °F 66.0 °F 56% 30.12 in 10.0 mi SE 8.1 mph - N/A   Clear
1:55 PM 82.8 °F 85.1 °F 66.4 °F 58% 30.11 in 10.0 mi Calm Calm - N/A   Clear
2:15 PM 84.7 °F 87.6 °F 67.3 °F 56% 30.11 in 10.0 mi SE 9.2 mph - N/A   Scattered Clouds
2:35 PM 84.4 °F 86.8 °F 66.6 °F 55% 30.11 in 10.0 mi SE 4.6 mph - N/A   Scattered Clouds
2:55 PM 84.7 °F 87.4 °F 67.1 °F 55% 30.10 in 10.0 mi South 5.8 mph - N/A   Scattered Clouds
3:15 PM 83.7 °F 86.2 °F 66.7 °F 57% 30.09 in 10.0 mi SE 4.6 mph - N/A   Scattered Clouds
3:35 PM 85.6 °F 88.8 °F 67.6 °F 55% 30.09 in 10.0 mi SSE 5.8 mph - N/A   Mostly Cloudy
3:55 PM 84.0 °F 86.5 °F 66.9 °F 56% 30.08 in 10.0 mi SE 6.9 mph - N/A   Mostly Cloudy
4:15 PM 86.7 °F 89.6 °F 67.3 °F 52% 30.08 in 10.0 mi ESE 8.1 mph - N/A   Mostly Cloudy
4:35 PM 87.1 °F 89.9 °F 66.9 °F 51% 30.07 in 10.0 mi East 9.2 mph - N/A   Overcast
4:55 PM 86.0 °F 88.2 °F 66.2 °F 51% 30.07 in 10.0 mi SE 10.4 mph - N/A   Scattered Clouds
5:15 PM 84.6 °F 86.6 °F 65.7 °F 53% 30.07 in 10.0 mi SE 6.9 mph - N/A   Overcast
5:35 PM 84.7 °F 86.8 °F 65.8 °F 53% 30.07 in 10.0 mi ESE 9.2 mph - N/A   Scattered Clouds
5:55 PM 85.1 °F 87.4 °F 66.4 °F 53% 30.07 in 10.0 mi SE 9.2 mph - N/A   Mostly Cloudy
6:15 PM 82.9 °F 85.0 °F 66.0 °F 56% 30.07 in 10.0 mi SE 8.1 mph - N/A   Clear
6:35 PM 83.5 °F 86.0 °F 66.6 °F 57% 30.08 in 10.0 mi ESE 6.9 mph - N/A   Mostly Cloudy
6:55 PM 82.9 °F 85.2 °F 66.4 °F 57% 30.08 in 10.0 mi ESE 8.1 mph - N/A   Scattered Clouds
7:15 PM 81.7 °F 84.0 °F 66.4 °F 60% 30.08 in 10.0 mi SE 8.1 mph - N/A   Clear
7:35 PM 80.6 °F 82.8 °F 66.4 °F 62% 30.08 in 10.0 mi SE 8.1 mph - N/A   Clear
7:55 PM 79.9 °F - 66.4 °F 63% 30.08 in 10.0 mi SE 6.9 mph - N/A   Clear
8:15 PM 78.8 °F - 66.4 °F 66% 30.09 in 10.0 mi ESE 4.6 mph - N/A   Clear
8:35 PM 77.9 °F - 66.2 °F 67% 30.09 in 10.0 mi SE 4.6 mph - N/A   Clear
8:55 PM 77.5 °F - 66.2 °F 68% 30.10 in 10.0 mi SSE 6.9 mph - N/A   Clear
9:15 PM 77.2 °F - 66.2 °F 69% 30.10 in 10.0 mi SSE 4.6 mph - N/A   Clear
9:35 PM 76.6 °F - 66.2 °F 70% 30.10 in 10.0 mi SSE 6.9 mph - N/A   Clear
9:55 PM 75.9 °F - 66.0 °F 71% 30.11 in 10.0 mi Calm Calm - N/A   Clear
10:15 PM 75.7 °F - 66.2 °F 72% 30.11 in 10.0 mi SSE 6.9 mph - N/A   Clear
10:35 PM 75.6 °F - 66.0 °F 72% 30.11 in 10.0 mi South 4.6 mph - N/A   Clear
10:55 PM 73.2 °F - 65.7 °F 77% 30.11 in 10.0 mi ENE 5.8 mph - N/A   Clear
11:15 PM 73.6 °F - 65.8 °F 77% 30.11 in 10.0 mi ESE 3.5 mph - N/A   Mostly Cloudy
11:35 PM 72.9 °F - 66.0 °F 79% 30.12 in 10.0 mi East 4.6 mph - N/A   Mostly Cloudy
11:55 PM 71.6 °F - 65.8 °F 82% 30.12 in 10.0 mi ENE 3.5 mph - N/A   Scattered Clouds